[[{"header":{"parameterUnit":"m.s-1","parameterCategory":1,"la1":30.2991,"la2":30.254,"lo1":-89.0895,"lo2":-89.0444,"dy":0.0017,"dx":0.0017,"nx":28,"ny":28,"refTime":"2023-08-15T09:00:00:Z","depth":0,"parameterNumber":2,"parameterNumberName":"U-component_of_WINDS"},"data":[0,0,0,0,0,0,0,0,0,0,0,0,0,0,0,0,0,0,0,0,0,0,0,0,0,0,0,0,0,0,0,0,0,0,0,0,0,0,0,0,0,0,0,0,0,0,0,0,0,0,0,0,0,0,0,0,0,0,-1.9072,-1.9073,0,-1.916,-1.9161,-1.9162,-1.9077,-1.9074,-1.9071,-1.9067,-1.9156,-1.9162,-1.9167,0,0,0,0,0,0,0,0,0,0,0,0,0,-1.8829,-1.8834,-1.9072,-1.9073,-1.9074,-1.916,-1.9161,-1.9162,-1.9078,-1.9074,-1.907,-1.9066,-1.9154,-1.9161,-1.9168,0,0,0,0,0,0,0,0,0,0,0,0,0,-1.8927,-1.8835,-1.9072,-1.9043,-1.9041,-1.916,-1.9161,-1.9163,-1.9079,-1.9074,-1.9069,-1.9064,-1.9152,-1.916,-1.9168,-1.9321,0,0,-1.9194,-1.9197,0,0,0,0,0,0,0,0,-1.8922,-1.8936,-1.9046,-1.9045,-1.9043,-1.9103,-1.9108,-1.9216,-1.908,-1.9064,-1.9067,-1.9061,-1.9142,-1.9151,-1.9179,-1.9325,-1.9328,-1.9194,-1.9199,-1.9203,-1.9205,0,0,0,0,0,0,0,-1.8915,-1.8932,-1.9107,-1.9048,-1.9046,-1.9024,-1.9033,-1.9128,-1.9131,-1.9065,-1.9059,-1.9071,-1.9141,-1.9171,-1.918,-1.933,-1.9194,-1.9202,-1.9207,-1.921,-1.9603,-1.9608,0,0,0,0,0,0,-1.8912,-1.8927,-1.9104,-1.911,-1.8969,-1.9033,-1.9042,-1.9089,-1.9129,-1.9131,-1.9075,-1.9067,-1.9159,-1.9171,-1.9183,-1.9363,-1.9203,-1.9211,-1.9215,-1.9598,-1.9604,-1.961,0,0,0,0,0,0,-1.8907,-1.8928,-1.9101,-1.9017,-1.9037,-1.9042,-1.9095,-1.9093,-1.9123,-1.9137,-1.9137,-1.9106,-1.9156,-1.9171,-1.9287,-1.9365,-1.9214,-1.9222,-1.9591,-1.96,-1.9607,-1.9725,0,0,0,0,0,0,-1.89,-1.8927,-1.8986,-1.9019,-1.9042,-1.9204,-1.91,-1.9098,-1.9138,-1.9128,-1.9166,-1.9167,-1.9153,-1.9275,-1.9295,-1.9374,-1.9228,-1.9584,-1.9595,-1.9605,-1.9714,-1.9736,-1.9755,0,0,0,0,0,-1.8892,-1.9015,-1.8989,-1.9011,-1.9115,-1.9209,-1.9222,-1.9204,-1.9144,-1.9203,-1.9211,-1.9166,-1.9353,-1.9287,-1.9309,-1.9392,-1.9579,-1.9592,-1.9604,-1.9705,-1.9732,-1.9754,0,0,0,0,0,0,-1.8992,-1.9019,-1.8991,-1.9129,-1.9167,-1.9194,-1.9268,-1.9233,-1.9289,-1.9277,-1.9251,-1.926,-1.9382,-1.9398,-1.9325,-1.954,-1.9456,-1.9474,-1.9526,-1.9551,-1.9571,-1.9565,-1.9235,0,0,0,0,0,-1.903,-1.9104,-1.9124,-1.9243,-1.9264,-1.9263,-1.9303,-1.9285,-1.9324,-1.934,-1.9357,-1.9395,-1.9462,-1.9507,-1.957,-1.9715,-1.9722,-1.9783,-1.9803,-1.982,-1.9835,-1.9912,-1.9939,-1.9651,-1.9651,-1.9651,0,0,-1.9109,-1.9133,-1.9182,-1.9264,-1.9292,-1.9368,-1.9277,-1.9362,-1.9419,-1.9352,-1.9462,-1.9476,-1.9517,-1.9648,-1.9707,-1.9665,-1.9916,-1.9835,-1.9849,-1.9855,-1.9927,-1.9955,-1.9979,-1.9659,-1.9658,-1.9656,0,0,-1.9293,-1.9319,-1.9421,-1.9451,-1.9494,-1.9492,-1.9516,-1.9549,-1.9555,-1.9665,-1.9617,-1.9683,-1.98,-1.9831,-1.9862,-2.0056,-2.0016,-2.0077,-2.0184,-2.0259,-2.0282,-2.0302,-2.0371,-2.0396,-2.0092,-2.0092,-2.0093,0,-1.9386,-1.95,-1.9478,-1.9567,-1.9604,-1.9547,-1.965,-1.9679,-1.9741,-1.9767,-1.972,-1.9864,-1.9888,-2.0025,-2.0072,-2.0099,-2.0126,-2.0073,-2.0281,-2.03,-2.0319,-2.0384,-2.041,-2.0099,-2.0099,-2.0098,-2.0097,0,-1.9613,-1.9692,-1.977,-1.9831,-1.9876,-1.9972,-1.9963,-2.0012,-1.999,-1.9992,-2.0104,-2.013,-2.0197,-2.0228,-2.0207,-2.0362,-2.0334,-2.0284,-2.02,-2.0354,-2.0415,-2.0439,-2.011,-2.0107,-2.0105,-2.0103,0,0,-1.9863,-1.9909,-1.9938,-1.9965,-2.0007,-2.0068,-2.016,-2.0225,-2.0267,-2.0311,-2.0387,-2.0486,-2.044,-2.0475,-2.0457,-2.0523,-2.0674,-2.0465,-2.0465,-2.0503,-2.0845,-2.0882,-2.0912,-2.0647,-2.0652,-2.0656,-2.0841,0,-2.0048,-2.0209,-2.0191,-2.0344,-2.0417,-2.0363,-2.0443,-2.0477,-2.0482,-2.0543,-2.0547,-2.0618,-2.0552,-2.0573,-2.0635,-2.0643,-2.0743,-2.0629,-2.0717,-2.0721,-2.0709,-2.0944,-2.0984,-2.1158,-2.0865,-2.0869,-2.0872,0,-2.0287,-2.0339,-2.0499,-2.0529,-2.0559,-2.0632,-2.0689,-2.0749,-2.0786,-2.0784,-2.0823,-2.0793,-2.0884,-2.0798,-2.0922,-2.0845,-2.088,-2.0889,-2.0895,-2.0903,-2.0806,-2.0958,-2.1213,-2.1239,-2.0909,-2.0906,-2.0903,0,-2.0453,-2.0563,-2.0673,-2.0698,-2.0736,-2.0788,-2.0806,-2.0838,-2.0878,-2.0927,-2.0953,-2.1013,-2.1046,-2.1092,-2.1078,-2.1016,-2.1206,-2.1118,-2.1206,-2.1207,-2.1249,-2.1247,-2.1514,-2.1271,-2.1271,-2.1271,-2.127,0,-2.0662,-2.0763,-2.0749,-2.0817,-2.0927,-2.0904,-2.1013,-2.1024,-2.1053,-2.1121,-2.1077,-2.1142,-2.112,-2.1183,-2.1173,-2.1277,-2.1292,-2.1293,-2.1289,-2.1297,-2.1297,-2.132,-2.1307,-2.1277,-2.1276,-2.1275,-2.1273,0,-2.0868,-2.0863,-2.0979,-2.1005,-2.1014,-2.1094,-2.1115,-2.1178,-2.1179,-2.1265,-2.1284,-2.1285,-2.1356,-2.1347,-2.1427,-2.142,-2.155,-2.1531,-2.1538,-2.1533,-2.1622,-2.1614,-2.1913,-2.1951,-2.1685,-2.1687,-2.1689,0,-2.1002,-2.1078,-2.1112,-2.1154,-2.1176,-2.1246,-2.1286,-2.1266,-2.1309,-2.1356,-2.1413,-2.1481,-2.1534,-2.1651,-2.1658,-2.1719,-2.1701,-2.1802,-2.171,-2.1715,-2.1702,-2.1698,-2.1705,-2.182,-2.1823,-2.1826,-2.1828,0,-2.124,-2.1233,-2.1294,-2.1353,-2.1403,-2.1448,-2.1489,-2.1527,-2.151,-2.1561,-2.1634,-2.1675,-2.1756,-2.1824,-2.188,-2.1897,-2.186,-2.1856,-2.188,-2.1889,-2.189,-2.189,-2.1587,-2.185,-2.1847,-2.1846,-2.1845,-2.1844,-2.1414,-2.1478,-2.1512,-2.158,-2.1609,-2.1648,-2.1708,-2.1716,-2.1777,-2.1842,-2.1825,-2.1908,-2.194,-2.2013,-2.2036,-2.2099,-2.2062,-2.2096,-2.2105,-2.2114,-2.2124,-2.1879,-2.2109,-2.2108,-2.2108,-2.2107,-2.2107,0,-2.165,-2.1669,-2.1732,-2.179,-2.1844,-2.1803,-2.1846,-2.1893,-2.1967,-2.2001,-2.2054,-2.2137,-2.2201,-2.2213,-2.2274,-2.2322,-2.2307,-2.2339,-2.2336,-2.234,-2.2154,-2.2128,-2.2351,-2.2351,-2.2351,-2.2351,-2.2351,-2.2351,-2.1779,-2.1886,-2.1883,-2.2003,-2.202,-2.2101,-2.2129,-2.2164,-2.2191,-2.2286,-2.234,-2.2347,-2.2371,-2.2434,-2.2491,-2.2492,-2.2517,-2.2556,-2.2551,-2.2377,-2.2353,-2.233,-2.2305,-2.2562,-2.2562,-2.2731,-2.2733,-2.2734]},{"header":{"parameterUnit":"m.s-1","parameterCategory":1,"la1":30.2991,"la2":30.254,"lo1":-89.0895,"lo2":-89.0444,"dy":0.0017,"dx":0.0017,"nx":28,"ny":28,"refTime":"2023-08-15T09:00:00:Z","depth":0,"parameterNumber":3,"parameterNumberName":"V-component_of_WINDS"},"data":[0,0,0,0,0,0,0,0,0,0,0,0,0,0,0,0,0,0,0,0,0,0,0,0,0,0,0,0,0,0,0,0,0,0,0,0,0,0,0,0,0,0,0,0,0,0,0,0,0,0,0,0,0,0,0,0,0,0,-3.2675,-3.2675,0,-3.2708,-3.2708,-3.2709,-3.2691,-3.269,-3.2689,-3.2688,-3.272,-3.2721,-3.2723,0,0,0,0,0,0,0,0,0,0,0,0,0,-3.2592,-3.2594,-3.2675,-3.2675,-3.2676,-3.2708,-3.2708,-3.2709,-3.2691,-3.269,-3.2689,-3.2688,-3.2719,-3.2721,-3.2723,0,0,0,0,0,0,0,0,0,0,0,0,0,-3.2627,-3.2594,-3.2675,-3.2671,-3.2671,-3.2708,-3.2708,-3.2709,-3.2691,-3.269,-3.2688,-3.2687,-3.2718,-3.2721,-3.2723,-3.2766,0,0,-3.2731,-3.2732,0,0,0,0,0,0,0,0,-3.2625,-3.263,-3.2671,-3.2671,-3.2671,-3.2694,-3.2691,-3.2728,-3.2691,-3.2683,-3.2688,-3.2687,-3.2712,-3.2715,-3.2724,-3.2767,-3.2768,-3.2731,-3.2733,-3.2734,-3.2734,0,0,0,0,0,0,0,-3.2623,-3.2628,-3.2688,-3.2672,-3.2672,-3.2666,-3.2669,-3.2698,-3.2705,-3.2684,-3.2683,-3.2687,-3.2712,-3.2722,-3.2725,-3.2769,-3.2731,-3.2733,-3.2735,-3.2736,-3.2845,-3.2847,0,0,0,0,0,0,-3.2621,-3.2627,-3.2687,-3.2689,-3.2644,-3.2669,-3.2672,-3.2688,-3.2704,-3.2706,-3.2688,-3.2686,-3.2718,-3.2722,-3.2726,-3.2774,-3.2734,-3.2736,-3.2737,-3.2844,-3.2846,-3.2847,0,0,0,0,0,0,-3.2619,-3.2627,-3.2686,-3.2657,-3.2665,-3.2671,-3.2689,-3.2689,-3.2699,-3.2708,-3.2708,-3.2697,-3.2717,-3.2722,-3.2755,-3.2775,-3.2737,-3.2739,-3.2842,-3.2845,-3.2846,-3.2873,0,0,0,0,0,0,-3.2617,-3.2626,-3.2643,-3.2658,-3.2666,-3.2716,-3.269,-3.2691,-3.2704,-3.2701,-3.2716,-3.2717,-3.2716,-3.2752,-3.2758,-3.2778,-3.2741,-3.2841,-3.2843,-3.2846,-3.287,-3.2876,-3.288,0,0,0,0,0,-3.2614,-3.265,-3.2644,-3.2652,-3.2688,-3.2717,-3.2722,-3.2721,-3.2706,-3.2722,-3.2727,-3.2717,-3.2772,-3.2755,-3.2762,-3.2783,-3.2839,-3.2843,-3.2846,-3.2868,-3.2875,-3.288,0,0,0,0,0,0,-3.2637,-3.2652,-3.2646,-3.2687,-3.2701,-3.2714,-3.2735,-3.2728,-3.2746,-3.2743,-3.274,-3.2743,-3.2777,-3.2784,-3.2765,-3.2824,-3.2803,-3.2808,-3.2818,-3.2824,-3.2829,-3.2826,-3.2744,0,0,0,0,0,-3.2647,-3.267,-3.2681,-3.2717,-3.2724,-3.2728,-3.2741,-3.2739,-3.2753,-3.2758,-3.2766,-3.2779,-3.2799,-3.2812,-3.2831,-3.2872,-3.2873,-3.2889,-3.2894,-3.2898,-3.2902,-3.2921,-3.2928,-3.2858,-3.2858,-3.2858,0,0,-3.2667,-3.2678,-3.2693,-3.2722,-3.2732,-3.2755,-3.2734,-3.2759,-3.2775,-3.2762,-3.2793,-3.2799,-3.2814,-3.285,-3.2866,-3.2856,-3.2922,-3.2902,-3.2906,-3.2907,-3.2925,-3.2932,-3.2937,-3.286,-3.2859,-3.2859,0,0,-3.2716,-3.2728,-3.2757,-3.2768,-3.2784,-3.2786,-3.2793,-3.2807,-3.281,-3.2842,-3.2832,-3.2851,-3.2886,-3.2896,-3.2905,-3.2956,-3.2946,-3.2962,-3.2988,-3.3006,-3.3012,-3.3017,-3.3032,-3.3038,-3.2966,-3.2966,-3.2966,0,-3.2739,-3.2774,-3.2773,-3.2799,-3.2811,-3.28,-3.2828,-3.2839,-3.286,-3.2868,-3.2856,-3.2899,-3.2908,-3.2945,-3.2957,-3.2966,-3.2972,-3.296,-3.3011,-3.3016,-3.3021,-3.3036,-3.3042,-3.2968,-3.2967,-3.2967,-3.2967,0,-3.2801,-3.2825,-3.2847,-3.2867,-3.2882,-3.2909,-3.291,-3.2925,-3.2921,-3.2924,-3.2955,-3.2965,-3.2985,-3.2994,-3.2991,-3.303,-3.3023,-3.3012,-3.2991,-3.3029,-3.3043,-3.3049,-3.297,-3.2969,-3.2969,-3.2968,0,0,-3.2865,-3.2883,-3.2891,-3.2899,-3.2915,-3.2933,-3.2959,-3.2979,-3.299,-3.3005,-3.3025,-3.3054,-3.3043,-3.3054,-3.3052,-3.3069,-3.3105,-3.3055,-3.3055,-3.3062,-3.3146,-3.3153,-3.316,-3.3099,-3.31,-3.3101,-3.3144,0,-3.2913,-3.2959,-3.2957,-3.2999,-3.302,-3.3009,-3.3031,-3.3043,-3.3046,-3.3063,-3.3066,-3.3086,-3.3071,-3.3077,-3.3094,-3.3097,-3.3121,-3.3094,-3.3116,-3.3117,-3.3111,-3.3168,-3.3176,-3.3216,-3.315,-3.3151,-3.3152,0,-3.2975,-3.2992,-3.3035,-3.3046,-3.3055,-3.3075,-3.3091,-3.3109,-3.3121,-3.3122,-3.3133,-3.3127,-3.3152,-3.3131,-3.3163,-3.3145,-3.3154,-3.3156,-3.3158,-3.3159,-3.3135,-3.3168,-3.3229,-3.3234,-3.3161,-3.316,-3.3159,0,-3.3015,-3.3048,-3.3078,-3.3085,-3.3099,-3.3113,-3.3119,-3.313,-3.3141,-3.3156,-3.3162,-3.318,-3.3188,-3.3201,-3.32,-3.3185,-3.3231,-3.3211,-3.3231,-3.3231,-3.324,-3.324,-3.3302,-3.3249,-3.3249,-3.3249,-3.3249,0,-3.3068,-3.3094,-3.3095,-3.3114,-3.3142,-3.314,-3.3168,-3.3173,-3.3182,-3.32,-3.3192,-3.3208,-3.3206,-3.3222,-3.3221,-3.3247,-3.3251,-3.3252,-3.3251,-3.3251,-3.3251,-3.3256,-3.3252,-3.3251,-3.325,-3.325,-3.325,0,-3.3117,-3.3119,-3.315,-3.316,-3.3163,-3.3184,-3.3192,-3.3208,-3.321,-3.3232,-3.3238,-3.3241,-3.3259,-3.3259,-3.328,-3.328,-3.331,-3.3307,-3.3306,-3.3305,-3.3324,-3.3321,-3.339,-3.3398,-3.3342,-3.3342,-3.3343,0,-3.3149,-3.3169,-3.3181,-3.3193,-3.32,-3.3218,-3.3229,-3.3228,-3.3239,-3.3253,-3.3267,-3.3285,-3.3299,-3.3329,-3.3332,-3.3348,-3.3344,-3.3367,-3.3346,-3.3345,-3.3341,-3.334,-3.334,-3.337,-3.3371,-3.3371,-3.3372,0,-3.3207,-3.3206,-3.3223,-3.3239,-3.3252,-3.3265,-3.3277,-3.3286,-3.3285,-3.3299,-3.3317,-3.3328,-3.3349,-3.3366,-3.3381,-3.3386,-3.3378,-3.3378,-3.3383,-3.3383,-3.3381,-3.338,-3.3315,-3.3376,-3.3376,-3.3376,-3.3375,-3.3375,-3.3247,-3.3263,-3.3274,-3.3292,-3.33,-3.3311,-3.3326,-3.333,-3.3345,-3.3362,-3.336,-3.338,-3.339,-3.3409,-3.3415,-3.343,-3.3422,-3.343,-3.3431,-3.3433,-3.3434,-3.338,-3.3433,-3.3433,-3.3433,-3.3433,-3.3433,0,-3.3302,-3.3307,-3.3324,-3.334,-3.3354,-3.3346,-3.3358,-3.3369,-3.3388,-3.3397,-3.3411,-3.3431,-3.3447,-3.3452,-3.3467,-3.3478,-3.3474,-3.3481,-3.348,-3.3481,-3.3442,-3.3435,-3.3484,-3.3484,-3.3484,-3.3484,-3.3484,-3.3484,-3.3332,-3.3358,-3.3358,-3.3388,-3.3394,-3.3414,-3.3421,-3.343,-3.3437,-3.346,-3.3474,-3.3476,-3.3483,-3.3499,-3.3512,-3.3513,-3.3518,-3.3527,-3.3526,-3.3489,-3.3484,-3.3479,-3.3472,-3.3528,-3.3528,-3.3563,-3.3563,-3.3564]}]]